Location: *
(53.4003°S, 165.3236°W)
Time: 00:47:03
(UTC+00:00)

Cosmos 1455 - Pass Details

Date: 11 December 2023
Orbit: 458 x 475 km, 82.5° (Epoch: 24 February)

Event Time Altitude Azimuth Distance (km) Brightness Sun altitude
Exits shadow 10:41:10 15° 47° (NE) 1,360 3.9 -13.6°
Drops below altitude 10° 10:46:07 10° 145° (SE) 1,667 5.6 -13.6°
Enters shadow 11:39:24 -72° 347° (NNW) 12,620 9.1 -13.0°
Maximum altitude 12:17:51 33° 251° (WSW) 836 3.2 -11.5°
